Weather History for KDLS - October, 2013

Change the Weather History Date:

Monday, October 28, 2013

  Actual Average Record
Temperature  
Mean Temperature 48 °F -  
Max Temperature 59 °F 58 °F - (-1)
Min Temperature 37 °F 38 °F - (-1)
Degree Days  
Heating Degree Days 17    
Moisture  
Dew Point 32 °F    
Average Humidity 55    
Maximum Humidity 80    
Minimum Humidity 27    
Precipitation  
Precipitation 0.00 in - - ()
Sea Level Pressure  
Sea Level Pressure 29.90 in    
Wind  
Wind Speed 4 mph (NE)    
Max Wind Speed 12 mph    
Max Gust Speed -    
Visibility 10 miles    
Events      
Averages and records for this station are not official NWS values.
T = Trace of Precipitation, MM = Missing Value Source: NWS Daily Summary

Daily Weather History Graph

Daily Weather History Graph

Search for Another Location

Airport or City:

Trip Planner

Search our weather history database for the weather conditions in past years. The results will help you decide how hot, cold, wet, or windy it might be!

Date:

Astronomy

Oct. 28, 2013 Rise Set
Actual Time 7:39 AM PDT 5:56 PM PDT
Civil Twilight 7:08 AM PDT 6:27 PM PDT
Nautical Twilight 6:33 AM PDT 7:02 PM PDT
Astronomical Twilight 5:59 AM PDT 7:36 PM PDT
Moon 1:19 AM PDT (10/28) 2:57 PM PDT (10/28)
Length of Visible Light 11h 18m
Length of Day
10h 17m
Waning Crescent, 33% of the Moon is Illuminated
Oct 28
Waning Crescent
Nov 3
New
Nov 9
First Quarter
Nov 17
Full
Nov 25
Last Quarter

Hourly Weather History & Observations

Time (PDT) Temp. Windchill Dew Point Humidity Pressure Visibility Wind Dir Wind Speed Gust Speed Precip Events Conditions
12:53 AM 51.1 °F - 45.0 °F 80% 29.86 in 10.0 mi Calm Calm - N/A   Overcast
1:53 AM 52.0 °F - 39.9 °F 63% 29.86 in 10.0 mi NE 8.1 mph - N/A   Overcast
2:53 AM 52.0 °F - 36.0 °F 54% 29.87 in 10.0 mi East 8.1 mph - N/A   Overcast
3:53 AM 52.0 °F - 34.0 °F 50% 29.88 in 10.0 mi East 11.5 mph - N/A   Overcast
4:53 AM 51.1 °F - 33.1 °F 50% 29.88 in 10.0 mi ENE 11.5 mph - N/A   Overcast
5:53 AM 48.9 °F - 36.0 °F 61% 29.89 in 10.0 mi Calm Calm - N/A   Overcast
6:53 AM 46.0 °F 43.1 °F 35.1 °F 66% 29.89 in 10.0 mi West 5.8 mph - N/A   Partly Cloudy
7:53 AM 43.0 °F 41.3 °F 36.0 °F 76% 29.91 in 10.0 mi NW 3.5 mph - N/A   Overcast
8:53 AM 46.0 °F 44.8 °F 36.0 °F 68% 29.92 in 10.0 mi Variable 3.5 mph - N/A   Overcast
9:53 AM 48.9 °F - 39.0 °F 69% 29.93 in 10.0 mi Calm Calm - N/A   Overcast
10:53 AM 52.0 °F - 34.0 °F 50% 29.91 in 10.0 mi Calm Calm - N/A   Mostly Cloudy
11:53 AM 55.9 °F - 32.0 °F 40% 29.91 in 10.0 mi NW 6.9 mph - N/A   Mostly Cloudy
12:53 PM 57.0 °F - 28.0 °F 33% 29.89 in 10.0 mi Variable 5.8 mph - N/A   Scattered Clouds
1:53 PM 55.9 °F - 26.1 °F 32% 29.87 in 10.0 mi Calm Calm - N/A   Scattered Clouds
2:53 PM 55.9 °F - 27.0 °F 33% 29.87 in 10.0 mi East 9.2 mph - N/A   Clear
3:53 PM 57.9 °F - 24.1 °F 27% 29.88 in 10.0 mi East 8.1 mph - N/A   Clear
4:53 PM 55.0 °F - 25.0 °F 31% 29.89 in 10.0 mi SSE 4.6 mph - N/A   Clear
5:53 PM 48.9 °F - 28.0 °F 44% 29.90 in 10.0 mi NW 5.8 mph - N/A   Clear
6:53 PM 46.0 °F - 28.0 °F 50% 29.92 in 10.0 mi Calm Calm - N/A   Clear
7:53 PM 43.0 °F 40.3 °F 30.0 °F 60% 29.94 in 10.0 mi WSW 4.6 mph - N/A   Clear
8:53 PM 39.9 °F - 30.0 °F 68% 29.94 in 10.0 mi Calm Calm - N/A   Clear
9:53 PM 39.0 °F 36.8 °F 28.9 °F 67% 29.95 in 10.0 mi North 3.5 mph - N/A   Clear
10:53 PM 39.0 °F - 28.9 °F 67% 29.96 in 10.0 mi Calm Calm - N/A   Clear
11:53 PM 37.9 °F - 28.9 °F 70% 29.98 in 10.0 mi Calm Calm - N/A   Clear